Time,TemperatureF,DewpointF,PressureIn,WindDirection,WindDirectionDegrees,WindSpeedMPH,WindSpeedGustMPH,Humidity,HourlyPrecipIn,Conditions,Clouds,dailyrainin,SoftwareType,DateUTC
2013-02-02 00:06:00,7.9,3.0,30.09,WNW,283,0.0,3.0,79,0.00,,,0.00,weatherlink.com 1.10,2013-02-02 05:06:00,
2013-02-02 00:24:00,7.6,3.0,30.10,East,79,0.0,0.0,81,0.00,,,0.00,weatherlink.com 1.10,2013-02-02 05:24:00,
2013-02-02 00:36:00,7.1,2.0,30.10,WNW,303,0.0,0.0,79,0.00,,,0.00,weatherlink.com 1.10,2013-02-02 05:36:00,
2013-02-02 00:51:00,6.5,2.0,30.11,SW,230,0.0,0.0,80,0.00,,,0.00,weatherlink.com 1.10,2013-02-02 05:51:00,
2013-02-02 01:18:00,6.0,1.0,30.12,SSW,210,0.0,1.0,79,0.00,,,0.00,weatherlink.com 1.10,2013-02-02 06:18:00,
2013-02-02 02:00:00,5.7,1.0,30.15,WSW,246,0.0,1.0,79,0.00,,,0.00,weatherlink.com 1.10,2013-02-02 07:00:00,
2013-02-02 02:06:00,5.7,1.0,30.15,SW,219,0.0,3.0,79,0.00,,,0.00,weatherlink.com 1.10,2013-02-02 07:06:00,
2013-02-02 02:26:00,5.9,0.0,30.16,NE,47,0.0,1.0,78,0.00,,,0.00,weatherlink.com 1.10,2013-02-02 07:26:00,
2013-02-02 02:37:00,5.9,1.0,30.16,West,265,0.0,0.0,79,0.00,,,0.00,weatherlink.com 1.10,2013-02-02 07:37:00,
2013-02-02 02:52:00,5.5,0.0,30.16,North,5,0.0,1.0,78,0.00,,,0.00,weatherlink.com 1.10,2013-02-02 07:52:00,
2013-02-02 03:25:00,4.4,-1.0,30.17,South,179,0.0,0.0,80,0.00,,,0.00,weatherlink.com 1.10,2013-02-02 08:25:00,
2013-02-02 03:35:00,4.2,-1.0,30.17,WSW,253,0.0,0.0,80,0.00,,,0.00,weatherlink.com 1.10,2013-02-02 08:35:00,
2013-02-02 03:51:00,3.9,-1.0,30.17,WSW,253,0.0,0.0,81,0.00,,,0.00,weatherlink.com 1.10,2013-02-02 08:51:00,
2013-02-02 04:06:00,3.6,-1.0,30.17,WSW,253,0.0,0.0,82,0.00,,,0.00,weatherlink.com 1.10,2013-02-02 09:06:00,
2013-02-02 04:21:00,3.2,-1.0,30.18,WSW,253,0.0,0.0,82,0.00,,,0.00,weatherlink.com 1.10,2013-02-02 09:21:00,
2013-02-02 04:36:00,3.0,-1.0,30.19,WSW,254,0.0,0.0,83,0.00,,,0.00,weatherlink.com 1.10,2013-02-02 09:36:00,
2013-02-02 04:51:00,2.8,-1.0,30.18,WSW,254,0.0,0.0,84,0.00,,,0.00,weatherlink.com 1.10,2013-02-02 09:51:00,
2013-02-02 05:06:00,2.6,-1.0,30.19,WSW,254,0.0,0.0,84,0.00,,,0.00,weatherlink.com 1.10,2013-02-02 10:06:00,
2013-02-02 05:21:00,2.4,-1.0,30.19,WSW,254,0.0,0.0,85,0.00,,,0.00,weatherlink.com 1.10,2013-02-02 10:21:00,
2013-02-02 05:36:00,2.4,-1.0,30.18,NE,39,0.0,0.0,85,0.00,,,0.00,weatherlink.com 1.10,2013-02-02 10:36:00,
2013-02-02 05:51:00,2.1,-1.0,30.19,NE,36,0.0,1.0,86,0.00,,,0.00,weatherlink.com 1.10,2013-02-02 10:51:00,
2013-02-02 06:06:00,1.9,-1.0,30.18,NE,36,0.0,0.0,86,0.00,,,0.00,weatherlink.com 1.10,2013-02-02 11:06:00,
2013-02-02 06:21:00,1.9,-1.0,30.19,NE,36,0.0,0.0,87,0.00,,,0.00,weatherlink.com 1.10,2013-02-02 11:21:00,
2013-02-02 06:36:00,1.8,-1.0,30.18,NE,36,0.0,0.0,86,0.00,,,0.00,weatherlink.com 1.10,2013-02-02 11:36:00,
2013-02-02 06:51:00,1.8,-1.0,30.19,NE,36,0.0,0.0,86,0.00,,,0.00,weatherlink.com 1.10,2013-02-02 11:51:00,
2013-02-02 07:06:00,1.8,-1.0,30.19,NE,36,0.0,0.0,87,0.00,,,0.00,weatherlink.com 1.10,2013-02-02 12:06:00,
2013-02-02 07:22:00,2.0,-1.0,30.19,NE,36,0.0,0.0,87,0.00,,,0.00,weatherlink.com 1.10,2013-02-02 12:22:00,
2013-02-02 07:37:00,3.2,0.0,30.20,NE,39,0.0,0.0,87,0.00,,,0.00,weatherlink.com 1.10,2013-02-02 12:37:00,
2013-02-02 07:52:00,5.1,1.0,30.20,South,186,0.0,1.0,83,0.00,,,0.00,weatherlink.com 1.10,2013-02-02 12:52:00,
2013-02-02 08:07:00,5.5,1.0,30.20,SW,221,0.0,1.0,80,0.00,,,0.00,weatherlink.com 1.10,2013-02-02 13:07:00,
2013-02-02 08:22:00,6.1,1.0,30.20,SSE,168,0.0,1.0,80,0.00,,,0.00,weatherlink.com 1.10,2013-02-02 13:22:00,
2013-02-02 08:37:00,8.4,2.0,30.20,SE,140,2.0,3.0,76,0.00,,,0.00,weatherlink.com 1.10,2013-02-02 13:37:00,
2013-02-02 08:52:00,9.8,3.0,30.20,WSW,240,0.0,5.0,73,0.00,,,0.00,weatherlink.com 1.10,2013-02-02 13:52:00,
2013-02-02 09:07:00,12.4,4.0,30.20,SSW,205,2.0,5.0,68,0.00,,,0.00,weatherlink.com 1.10,2013-02-02 14:07:00,
2013-02-02 09:22:00,13.9,5.0,30.20,SSE,157,2.0,6.0,67,0.00,,,0.00,weatherlink.com 1.10,2013-02-02 14:22:00,
2013-02-02 09:37:00,14.9,5.0,30.20,South,178,2.0,5.0,64,0.00,,,0.00,weatherlink.com 1.10,2013-02-02 14:37:00,
2013-02-02 09:52:00,15.8,5.0,30.19,WNW,296,0.0,6.0,63,0.00,,,0.00,weatherlink.com 1.10,2013-02-02 14:52:00,
2013-02-02 10:07:00,17.3,6.0,30.19,SE,128,0.0,4.0,62,0.00,,,0.00,weatherlink.com 1.10,2013-02-02 15:07:00,
2013-02-02 10:22:00,17.8,6.0,30.19,NNE,15,1.0,8.0,61,0.00,,,0.00,weatherlink.com 1.10,2013-02-02 15:22:00,
2013-02-02 10:37:00,18.5,5.0,30.18,WNW,284,0.0,4.0,57,0.00,,,0.00,weatherlink.com 1.10,2013-02-02 15:37:00,
2013-02-02 10:53:00,17.6,5.0,30.17,SE,133,3.0,7.0,58,0.00,,,0.00,weatherlink.com 1.10,2013-02-02 15:53:00,
2013-02-02 11:08:00,17.1,5.0,30.17,SSE,165,1.0,4.0,60,0.00,,,0.00,weatherlink.com 1.10,2013-02-02 16:08:00,
2013-02-02 11:23:00,17.9,6.0,30.16,West,277,1.0,5.0,59,0.00,,,0.00,weatherlink.com 1.10,2013-02-02 16:23:00,
2013-02-02 11:38:00,18.3,6.0,30.15,SE,146,0.0,5.0,60,0.00,,,0.00,weatherlink.com 1.10,2013-02-02 16:38:00,
2013-02-02 11:53:00,18.3,6.0,30.14,ENE,59,0.0,2.0,60,0.00,,,0.00,weatherlink.com 1.10,2013-02-02 16:53:00,
2013-02-02 12:08:00,17.8,6.0,30.14,SSW,203,3.0,3.0,60,0.00,,,0.00,weatherlink.com 1.10,2013-02-02 17:08:00,
2013-02-02 12:23:00,18.1,7.0,30.13,NE,46,0.0,2.0,61,0.00,,,0.00,weatherlink.com 1.10,2013-02-02 17:23:00,
2013-02-02 12:38:00,17.9,6.0,30.12,WSW,244,1.0,3.0,61,0.00,,,0.00,weatherlink.com 1.10,2013-02-02 17:38:00,
2013-02-02 12:53:00,17.8,7.0,30.12,WSW,244,1.0,4.0,62,0.00,,,0.00,weatherlink.com 1.10,2013-02-02 17:53:00,
2013-02-02 13:08:00,18.1,6.0,30.11,NNW,330,1.0,2.0,60,0.00,,,0.00,weatherlink.com 1.10,2013-02-02 18:08:00,
2013-02-02 13:23:00,18.2,7.0,30.11,WSW,242,3.0,5.0,63,0.00,,,0.00,weatherlink.com 1.10,2013-02-02 18:23:00,
2013-02-02 13:38:00,17.5,6.0,30.10,ESE,115,0.0,4.0,61,0.00,,,0.00,weatherlink.com 1.10,2013-02-02 18:38:00,
2013-02-02 13:53:00,17.5,6.0,30.10,SW,226,1.0,6.0,62,0.00,,,0.00,weatherlink.com 1.10,2013-02-02 18:53:00,
2013-02-02 14:08:00,17.4,7.0,30.09,SSE,165,0.0,7.0,63,0.00,,,0.00,weatherlink.com 1.10,2013-02-02 19:08:00,
2013-02-02 14:24:00,17.5,6.0,30.09,SSE,158,1.0,7.0,62,0.00,,,0.00,weatherlink.com 1.10,2013-02-02 19:24:00,
2013-02-02 14:39:00,17.5,6.0,30.09,SSW,210,0.0,8.0,62,0.00,,,0.00,weatherlink.com 1.10,2013-02-02 19:39:00,
2013-02-02 14:54:00,18.0,7.0,30.09,West,273,0.0,2.0,61,0.00,,,0.00,weatherlink.com 1.10,2013-02-02 19:54:00,
2013-02-02 15:09:00,17.9,6.0,30.09,SSW,207,0.0,5.0,61,0.00,,,0.00,weatherlink.com 1.10,2013-02-02 20:09:00,
2013-02-02 15:24:00,17.8,7.0,30.09,NW,325,1.0,3.0,62,0.00,,,0.00,weatherlink.com 1.10,2013-02-02 20:24:00,
2013-02-02 15:39:00,17.5,8.0,30.08,SW,226,3.0,4.0,65,0.00,,,0.00,weatherlink.com 1.10,2013-02-02 20:39:00,
2013-02-02 15:54:00,17.1,8.0,30.08,SE,142,0.0,6.0,67,0.00,,,0.00,weatherlink.com 1.10,2013-02-02 20:54:00,
2013-02-02 16:09:00,16.6,9.0,30.09,SSW,209,0.0,6.0,72,0.00,,,0.00,weatherlink.com 1.10,2013-02-02 21:09:00,
2013-02-02 16:24:00,16.2,10.0,30.09,SSW,205,3.0,8.0,75,0.00,,,0.00,weatherlink.com 1.10,2013-02-02 21:24:00,
2013-02-02 16:39:00,15.8,10.0,30.09,SE,128,1.0,5.0,79,0.00,,,0.00,weatherlink.com 1.10,2013-02-02 21:39:00,
2013-02-02 16:54:00,15.4,11.0,30.09,SSE,160,0.0,3.0,82,0.00,,,0.00,weatherlink.com 1.10,2013-02-02 21:54:00,
2013-02-02 17:09:00,15.1,11.0,30.08,SSE,150,0.0,7.0,83,0.00,,,0.00,weatherlink.com 1.10,2013-02-02 22:09:00,
2013-02-02 17:24:00,15.0,11.0,30.09,SSE,160,2.0,2.0,85,0.00,,,0.00,weatherlink.com 1.10,2013-02-02 22:24:00,
2013-02-02 17:40:00,14.8,12.0,30.09,SW,230,0.0,3.0,87,0.00,,,0.00,weatherlink.com 1.10,2013-02-02 22:40:00,
2013-02-02 17:55:00,14.7,12.0,30.09,West,262,0.0,3.0,88,0.00,,,0.00,weatherlink.com 1.10,2013-02-02 22:55:00,
2013-02-02 18:10:00,14.6,12.0,30.09,WNW,284,0.0,0.0,89,0.00,,,0.00,weatherlink.com 1.10,2013-02-02 23:10:00,
2013-02-02 18:25:00,14.6,12.0,30.09,SSE,149,0.0,1.0,89,0.00,,,0.00,weatherlink.com 1.10,2013-02-02 23:25:00,
2013-02-02 18:40:00,14.4,12.0,30.09,SW,221,0.0,0.0,89,0.00,,,0.00,weatherlink.com 1.10,2013-02-02 23:40:00,
2013-02-02 18:55:00,14.1,12.0,30.09,SW,221,0.0,0.0,90,0.00,,,0.00,weatherlink.com 1.10,2013-02-02 23:55:00,
2013-02-02 19:10:00,13.7,11.0,30.09,SW,221,0.0,0.0,90,0.00,,,0.00,weatherlink.com 1.10,2013-02-03 00:10:00,
2013-02-02 19:25:00,13.5,11.0,30.09,SW,221,0.0,0.0,91,0.00,,,0.00,weatherlink.com 1.10,2013-02-03 00:25:00,
2013-02-02 19:40:00,13.6,12.0,30.09,SW,221,0.0,0.0,91,0.00,,,0.00,weatherlink.com 1.10,2013-02-03 00:40:00,
2013-02-02 19:55:00,13.8,12.0,30.08,SW,221,0.0,0.0,91,0.00,,,0.00,weatherlink.com 1.10,2013-02-03 00:55:00,
2013-02-02 20:10:00,14.0,12.0,30.08,SW,221,0.0,0.0,90,0.00,,,0.00,weatherlink.com 1.10,2013-02-03 01:10:00,
2013-02-02 20:25:00,14.4,12.0,30.08,SW,221,0.0,1.0,90,0.00,,,0.00,weatherlink.com 1.10,2013-02-03 01:25:00,
2013-02-02 20:40:00,14.4,12.0,30.08,SW,219,0.0,1.0,90,0.00,,,0.00,weatherlink.com 1.10,2013-02-03 01:40:00,
2013-02-02 20:55:00,14.5,12.0,30.09,SE,128,0.0,1.0,90,0.00,,,0.00,weatherlink.com 1.10,2013-02-03 01:55:00,
2013-02-02 21:10:00,14.5,12.0,30.09,SE,128,0.0,1.0,90,0.00,,,0.00,weatherlink.com 1.10,2013-02-03 02:10:00,
2013-02-02 21:25:00,14.4,12.0,30.08,SE,128,0.0,1.0,90,0.00,,,0.00,weatherlink.com 1.10,2013-02-03 02:25:00,
2013-02-02 21:40:00,14.4,12.0,30.09,SE,128,0.0,0.0,90,0.00,,,0.00,weatherlink.com 1.10,2013-02-03 02:40:00,
2013-02-02 21:55:00,14.3,12.0,30.08,SE,128,0.0,0.0,90,0.00,,,0.00,weatherlink.com 1.10,2013-02-03 02:55:00,
2013-02-02 22:10:00,14.0,12.0,30.08,SE,128,0.0,0.0,90,0.00,,,0.00,weatherlink.com 1.10,2013-02-03 03:10:00,
2013-02-02 22:25:00,13.8,11.0,30.08,SE,128,0.0,0.0,90,0.00,,,0.00,weatherlink.com 1.10,2013-02-03 03:25:00,
2013-02-02 22:41:00,13.9,12.0,30.08,SE,128,0.0,0.0,91,0.00,,,0.00,weatherlink.com 1.10,2013-02-03 03:41:00,
2013-02-02 22:56:00,14.1,12.0,30.08,SE,128,0.0,0.0,91,0.00,,,0.00,weatherlink.com 1.10,2013-02-03 03:56:00,
2013-02-02 23:11:00,14.1,12.0,30.08,SE,128,0.0,0.0,90,0.00,,,0.00,weatherlink.com 1.10,2013-02-03 04:11:00,
2013-02-02 23:26:00,14.0,12.0,30.08,SE,128,0.0,0.0,90,0.00,,,0.00,weatherlink.com 1.10,2013-02-03 04:26:00,
2013-02-02 23:41:00,13.8,11.0,30.07,SE,128,0.0,0.0,90,0.00,,,0.00,weatherlink.com 1.10,2013-02-03 04:41:00,
2013-02-02 23:56:00,13.2,11.0,30.08,SE,128,0.0,0.0,90,0.00,,,0.00,weatherlink.com 1.10,2013-02-03 04:56:00,